K6NCC-13 Weather Reports


time (UTC)temp
C
wind
direction
speed
KPH
gust
KPH
rain 1hr
cm
rain 24hr
cm
rain mn
cm
humidity
%
barometer
mb
20260506103005 16 114 0.0 0.0 0.00 0.00 0.00 81 1017.6
20260506102004 16 115 0.0 0.0 0.00 0.00 0.00 80 1017.4
20260506101004 16 115 0.0 0.0 0.00 0.03 0.00 80 1017.5
20260506100003 16 116 0.0 0.0 0.00 0.03 0.00 81 1017.4
20260506095004 16 116 0.0 0.0 0.00 0.03 0.00 80 1017.4
20260506094004 16 116 0.0 0.0 0.00 0.03 0.00 80 1017.4
20260506093005 16 116 0.0 0.0 0.00 0.03 0.00 80 1017.3
20260506092005 16 118 0.0 0.0 0.00 0.03 0.00 79 1017.5
20260506091004 16 118 0.0 0.0 0.00 0.03 0.00 79 1017.6
20260506090004 16 118 0.0 0.0 0.00 0.03 0.00 79 1017.5
20260506085004 16 118 0.0 0.0 0.00 0.05 0.00 78 1017.5
20260506084006 16 116 0.0 0.0 0.00 0.05 0.00 78 1017.4
20260506083005 16 118 0.0 0.0 0.00 0.05 0.00 78 1014.3
20260506082004 16 118 0.0 0.0 0.00 0.08 0.00 78 1014.3
20260506081006 16 119 0.0 0.0 0.00 0.08 0.00 78 1014.3
20260506073004 16 121 0.0 0.0 0.00 0.58 0.00 77 1014.3
20260506072004 16 118 0.0 0.0 0.00 0.58 0.00 77 1014.3
20260506061004 17 134 0.0 0.0 0.00 0.66 0.00 73 1014.3
20260506051004 17 120 0.0 0.0 0.00 0.86 0.00 73 1014.3
20260506045004 17 119 0.0 0.0 0.00 0.89 0.00 72 1014.3
20260506044004 17 122 0.0 0.0 0.00 0.91 0.00 73 1014.3
20260506043005 17 129 0.0 0.0 0.00 0.94 0.00 72 1014.3
20260506042004 17 129 0.0 0.0 0.00 0.99 0.00 72 1014.3
20260506041007 17 122 0.0 0.0 0.00 0.99 0.00 72 1014.3
20260506040004 17 132 0.0 0.0 0.00 1.02 0.05 71 1014.3
20260506035004 17 130 1.6 3.2 0.00 1.02 0.05 70 1014.3
20260506034004 17 143 1.6 3.2 0.00 1.02 0.05 70 1014.3
20260506033005 17 110 1.6 3.2 0.00 1.02 0.05 70 1014.3
20260506032004 17 131 1.6 1.6 0.00 1.02 0.05 70 1014.3
20260506031004 17 131 0.0 3.2 0.00 1.09 0.05 70 1013.9
20260506025004 17 138 0.0 1.6 0.00 1.09 0.05 70 1013.7
20260506024004 17 125 0.0 1.6 0.00 1.09 0.05 69 1013.4
20260506023004 18 124 1.6 3.2 0.00 1.09 0.05 69 1013.5
20260506022005 18 228 1.6 3.2 0.00 1.09 0.05 69 1013.3
20260506021005 18 126 0.0 1.6 0.00 1.09 0.05 69 1013.0
20260506020004 18 123 0.0 8.0 0.00 1.09 0.05 70 1013.1
20260506015003 18 111 4.8 8.0 0.00 1.09 0.05 68 1012.9
20260506014004 18 140 1.6 3.2 0.00 1.09 0.05 68 1013.0
20260506013004 18 111 1.6 1.6 0.00 1.09 0.05 66 1012.7
20260506012004 18 128 0.0 4.8 0.00 1.09 0.05 67 1012.6
20260506011005 18 127 4.8 4.8 0.00 1.09 0.05 66 1012.6
20260506010004 18 125 1.6 1.6 0.00 1.09 0.05 66 1012.6
20260506005004 18 127 1.6 1.6 0.00 1.09 0.05 67 1012.4
20260506004005 18 101 1.6 1.6 0.00 1.09 0.05 66 1012.4
20260506002003 18 132 0.0 1.6 0.00 1.09 0.05 67 1012.6
20260506001004 18 135 0.0 3.2 0.00 1.09 0.05 67 1012.3
20260506000004 19 171 1.6 3.2 0.00 1.09 0.05 64 1012.3
20260505235003 19 142 0.0 3.2 0.00 1.09 0.05 66 1012.3
20260505234004 18 123 1.6 4.8 0.00 1.09 0.05 66 1012.3
20260505233004 19 176 1.6 4.8 0.00 1.09 0.05 66 1012.3
20260505232005 19 167 1.6 3.2 0.00 1.09 0.05 66 1012.5
20260505231003 19 155 1.6 3.2 0.00 1.09 0.05 65 1012.5
20260505230004 19 164 3.2 4.8 0.00 1.09 0.05 65 1012.5
20260505225004 19 124 3.2 4.8 0.00 1.09 0.05 66 1012.5
20260505224004 19 144 1.6 4.8 0.00 1.09 0.05 66 1012.6
20260505223004 20 132 4.8 4.8 0.00 1.09 0.05 64 1012.8
20260505222004 20 114 0.0 1.6 0.00 1.09 0.05 64 1012.8
20260505221004 20 141 0.0 1.6 0.00 1.09 0.05 60 1012.8
20260505220004 21 120 0.0 4.8 0.00 1.09 0.05 60 1013.0
20260505214004 20 147 1.6 1.6 0.00 1.09 0.05 64 1013.0
20260505213004 20 114 3.2 4.8 0.00 1.09 0.05 62 1013.1
20260505212004 21 130 1.6 4.8 0.00 1.09 0.05 59 1013.1
20260505211004 21 126 0.0 3.2 0.00 1.09 0.05 60 1013.2
20260505210004 21 126 1.6 1.6 0.00 1.09 0.05 60 1013.3
20260505205003 20 134 3.2 3.2 0.00 1.09 0.05 61 1013.2
20260505203004 19 137 3.2 3.2 0.00 1.09 0.05 62 1013.5
20260505202004 19 178 1.6 3.2 0.00 1.09 0.05 64 1013.6
20260505201004 19 106 0.0 1.6 0.00 1.09 0.05 66 1013.6
20260505200004 18 116 0.0 1.6 0.00 1.09 0.05 68 1013.7
20260505195003 17 101 0.0 1.6 0.00 1.09 0.05 66 1013.8
20260505194004 17 92 1.6 4.8 0.00 1.09 0.05 72 1013.9
20260505193003 17 199 3.2 4.8 0.00 1.09 0.05 70 1013.9
20260505192004 17 125 1.6 3.2 0.00 1.09 0.05 71 1014.2
20260505191004 17 186 3.2 3.2 0.00 1.09 0.05 71 1014.0
20260505190004 17 110 1.6 1.6 0.00 1.09 0.05 70 1014.2
20260505184005 16 108 0.0 1.6 0.00 1.09 0.05 75 1013.9
20260505175005 15 141 0.0 3.2 0.00 1.09 0.05 79 1014.2
20260505174006 15 171 3.2 3.2 0.00 1.09 0.05 78 1014.2
20260505171004 14 147 0.0 1.6 0.00 1.09 0.05 83 1014.3
20260505170004 14 140 1.6 1.6 0.00 1.09 0.05 83 1014.1
20260505165003 14 134 0.0 0.0 0.00 1.09 0.05 84 1014.3
20260505164004 13 133 0.0 0.0 0.00 1.09 0.05 86 1014.3
20260505162005 13 121 1.6 1.6 0.00 1.09 0.05 87 1014.3
20260505161005 13 123 0.0 0.0 0.00 1.09 0.05 88 1014.3
20260505153004 12 102 1.6 1.6 0.00 1.09 0.05 91 1014.1
20260505152004 12 120 0.0 3.2 0.00 1.09 0.05 91 1014.1
20260505151004 12 116 3.2 3.2 0.00 1.09 0.05 92 1014.0
20260505124004 11 139 0.0 0.0 0.00 1.09 0.05 95 1013.2
20260505123005 11 128 0.0 0.0 0.00 1.09 0.05 95 1013.2
20260505121004 11 116 0.0 0.0 0.00 1.09 0.05 95 1013.3
20260505120004 11 128 0.0 0.0 0.00 1.09 0.05 95 1013.3
20260505115004 11 119 0.0 0.0 0.00 1.09 0.05 95 1013.2
20260505114004 11 127 0.0 0.0 0.00 1.09 0.05 95 1013.3
20260505113004 11 118 0.0 0.0 0.00 1.09 0.05 95 1013.1
20260505112004 11 128 0.0 0.0 0.00 1.09 0.05 95 1013.2
20260505111004 11 128 0.0 0.0 0.03 1.09 0.05 95 1013.1